Precipitable_Water
1.09 1.20 1.27 1.35 1.43 1.38 1.27 1.22 1.12 1.10 1.11 1.13 1.20 1.18 1.21 1.28 1.27 1.21 1.22 1.20 1.11 1.00 0.97 1.03 1.21 1.26 1.32 1.36 1.46 1.49 1.55 1.49 1.50
0.92 1.06 1.17 1.26 1.41 1.45 1.41 1.30 1.24 1.15 1.10 1.12 1.18 1.18 1.19 1.23 1.27 1.23 1.19 1.20 1.22 1.09 1.02 1.06 1.21 1.28 1.29 1.34 1.42 1.49 1.50 1.47 1.44
0.84 0.96 1.04 1.16 1.30 1.42 1.45 1.36 1.33 1.32 1.23 1.13 1.13 1.18 1.20 1.20 1.23 1.25 1.25 1.26 1.22 1.18 1.10 1.10 1.18 1.26 1.32 1.27 1.35 1.40 1.48 1.47 1.48
0.72 0.82 0.91 1.03 1.17 1.30 1.45 1.48 1.41 1.32 1.26 1.19 1.19 1.21 1.21 1.24 1.23 1.25 1.27 1.24 1.25 1.23 1.18 1.13 1.15 1.25 1.27 1.25 1.25 1.31 1.35 1.42 1.46
0.70 0.72 0.79 0.87 1.04 1.19 1.34 1.40 1.38 1.28 1.27 1.21 1.20 1.22 1.22 1.20 1.25 1.25 1.23 1.22 1.25 1.28 1.18 1.16 1.13 1.22 1.25 1.24 1.21 1.32 1.30 1.27 1.40
0.66 0.71 0.77 0.87 0.98 1.09 1.19 1.30 1.35 1.27 1.24 1.21 1.29 1.30 1.27 1.25 1.24 1.22 1.20 1.22 1.25 1.27 1.23 1.15 1.12 1.13 1.11 1.11 1.18 1.22 1.32 1.33 1.32
0.49 0.52 0.59 0.69 0.82 0.91 1.12 1.17 1.28 1.33 1.25 1.30 1.34 1.35 1.30 1.24 1.23 1.23 1.22 1.25 1.25 1.22 1.23 1.19 1.13 1.07 1.05 1.05 1.08 1.16 1.22 1.29 1.34
0.48 0.47 0.48 0.58 0.69 0.80 0.93 1.17 1.23 1.37 1.39 1.39 1.38 1.28 1.31 1.25 1.25 1.28 1.27 1.24 1.22 1.21 1.20 1.18 1.15 1.07 1.04 1.08 1.09 1.11 1.14 1.16 1.18
0.52 0.52 0.49 0.52 0.63 0.75 0.88 1.08 1.14 1.25 1.37 1.36 1.40 1.21 1.24 1.32 1.28 1.23 1.18 1.16 1.14 1.16 1.16 1.16 1.15 1.09 1.04 1.00 1.03 1.03 1.03 1.09 1.11
0.55 0.54 0.48 0.41 0.54 0.71 0.83 1.00 1.09 1.17 1.28 1.43 1.33 1.05 1.09 1.15 1.18 1.14 1.12 1.12 1.10 1.07 1.07 1.13 1.11 1.10 1.10 1.01 1.00 1.01 1.03 1.07 1.11
0.70 0.75 0.61 0.58 0.66 0.76 0.83 1.00 1.10 1.25 1.31 1.37 1.27 1.04 1.09 1.14 1.10 1.07 1.11 1.11 1.09 1.09 1.11 1.07 1.09 1.09 1.08 1.05 1.02 1.06 1.07 1.09 1.14
0.91 0.86 0.77 0.75 0.77 0.87 0.94 1.05 1.17 1.24 1.32 1.25 1.11 1.11 1.16 1.23 1.19 1.15 1.18 1.17 1.16 1.18 1.20 1.19 1.16 1.16 1.15 1.11 1.10 1.15 1.15 1.15 1.16
1.02 0.92 0.85 0.78 0.84 0.96 1.02 1.14 1.24 1.25 1.28 1.18 1.05 1.09 1.25 1.42 1.48 1.46 1.42 1.46 1.49 1.53 1.54 1.49 1.54 1.51 1.49 1.43 1.42 1.50 1.48 1.46 1.41
1.13 1.07 1.01 1.03 1.00 0.97 1.04 1.17 1.26 1.27 1.32 1.15 1.22 1.39 1.39 1.47 1.53 1.56 1.61 1.65 1.69 1.68 1.70 1.72 1.68 1.63 1.65 1.66 1.65 1.67 1.72 1.74 1.69
1.14 1.17 1.15 1.20 1.19 1.17 1.17 1.24 1.34 1.30 1.33 1.40 1.47 1.47 1.42 1.46 1.53 1.62 1.68 1.69 1.76 1.75 1.72 1.67 1.64 1.66 1.70 1.78 1.84 1.83 1.80 1.80 1.76
1.23 1.30 1.31 1.39 1.33 1.34 1.34 1.38 1.44 1.38 1.50 1.58 1.56 1.54 1.49 1.52 1.52 1.63 1.61 1.66 1.65 1.60 1.62 1.55 1.49 1.45 1.43 1.45 1.58 1.64 1.70 1.74 1.76
1.19 1.29 1.33 1.40 1.38 1.34 1.41 1.54 1.58 1.60 1.68 1.76 1.74 1.64 1.63 1.63 1.58 1.51 1.62 1.65 1.62 1.61 1.55 1.50 1.42 1.36 1.33 1.38 1.44 1.50 1.59 1.61 1.65
1.00 1.18 1.32 1.40 1.39 1.38 1.39 1.50 1.55 1.64 1.68 1.70 1.64 1.67 1.65 1.63 1.60 1.56 1.56 1.58 1.63 1.63 1.71 1.64 1.50 1.47 1.50 1.48 1.43 1.48 1.60 1.61 1.61
0.86 0.93 1.13 1.28 1.40 1.44 1.45 1.48 1.47 1.52 1.54 1.48 1.46 1.44 1.47 1.46 1.44 1.40 1.47 1.48 1.48 1.62 1.63 1.64 1.73 1.74 1.65 1.67 1.67 1.68 1.67 1.69 1.70
0.86 0.85 0.88 1.02 1.19 1.36 1.43 1.42 1.37 1.36 1.30 1.23 1.13 1.11 1.14 1.19 1.21 1.25 1.24 1.22 1.21 1.18 1.35 1.48 1.57 1.65 1.63 1.69 1.68 1.68 1.69 1.71 1.72
Wind_Speed
28 28 28 29 26 25 25 25 27 30 31 33 32 31 30 29 28 26 24 22 20 19 18 16 14 13 12 10 9 8 7 6 6
26 28 28 29 29 28 27 27 28 29 31 32 33 33 31 30 29 28 26 24 21 20 19 17 16 14 13 12 11 10 9 8 8
26 26 28 30 30 30 28 27 29 30 31 33 33 34 32 31 30 29 27 25 23 21 20 19 17 16 15 14 14 13 12 11 11
26 26 26 28 30 32 31 29 28 30 32 33 34 34 33 32 31 30 29 27 25 23 22 21 19 18 16 16 15 15 15 15 14
28 27 26 26 29 30 32 31 29 29 31 31 33 33 33 33 32 31 30 28 27 25 23 22 21 19 18 18 17 16 16 17 16
29 28 28 28 27 30 31 32 31 29 29 31 32 32 32 32 32 31 30 29 28 26 24 23 22 21 21 20 19 18 17 17 17
27 27 28 29 30 32 34 32 32 31 29 30 31 32 32 32 32 31 30 29 28 27 26 24 24 23 22 21 20 19 18 18 18
29 30 31 32 32 32 34 34 32 31 30 30 30 31 32 32 32 32 31 30 29 28 26 25 24 24 23 22 22 21 20 19 19
28 30 32 35 36 35 34 34 33 32 30 30 29 30 31 32 32 31 31 30 29 28 26 26 25 24 24 24 23 23 22 20 18
22 26 30 33 40 39 36 34 33 32 31 30 29 28 29 30 30 30 30 29 28 27 27 26 25 25 25 25 24 23 22 22 21
18 21 23 31 35 39 36 33 33 31 30 29 29 28 28 28 28 29 29 28 27 27 26 25 25 24 24 24 24 23 23 23 23
13 14 19 26 33 34 32 32 32 30 29 28 29 28 27 27 27 27 27 27 26 25 25 24 23 23 23 24 24 24 24 24 24
10 11 14 22 31 31 30 30 31 30 29 28 28 28 27 27 27 27 27 27 26 26 25 25 24 24 24 24 25 25 25 25 25
9 11 14 19 24 27 29 30 30 31 30 28 27 27 27 27 27 26 26 25 25 25 25 25 24 25 25 25 25 25 25 25 26
10 10 12 15 19 21 25 28 29 30 30 28 28 27 27 27 27 26 26 26 25 25 25 25 25 25 25 25 26 26 26 27 28
13 11 12 13 15 16 21 24 26 26 27 27 28 27 26 27 28 29 28 27 26 25 25 26 25 24 24 24 24 25 26 27 28
14 13 12 13 14 13 16 21 23 23 24 25 27 27 26 26 25 29 29 28 28 27 27 26 26 26 26 25 25 25 25 27 27
16 15 14 14 14 14 14 17 19 20 21 23 23 24 24 25 26 26 29 30 30 29 29 30 29 29 28 27 27 26 27 27 27
18 16 15 15 15 15 15 16 17 18 18 19 21 22 22 23 24 26 28 29 29 29 30 30 31 30 30 30 30 28 28 29 28
21 19 18 17 17 16 17 18 18 18 18 19 20 22 23 24 25 25 27 28 29 30 29 29 30 32 32 32 31 30 29 28 27
Wind_Direction
216 214 215 216 215 213 211 209 205 206 206 207 208 208 209 211 212 213 214 214 215 215 216 217 217 218 220 222 222 221 217 211 201
214 215 215 215 216 215 214 212 210 208 208 209 209 210 211 212 213 214 215 216 217 217 218 218 220 222 224 225 226 226 225 222 216
217 217 218 218 217 215 215 213 212 211 211 210 211 212 213 214 214 215 216 217 218 218 219 221 222 225 228 229 230 231 231 230 226
217 216 215 217 216 217 215 214 213 213 212 212 212 213 214 215 216 217 217 218 219 220 222 223 225 227 229 232 234 235 235 233 231
218 217 217 218 217 214 212 213 213 212 211 211 211 212 213 215 216 217 217 218 219 221 223 224 226 228 232 235 235 235 235 233 232
219 223 222 221 216 214 215 212 211 211 209 210 210 211 213 215 216 216 217 217 219 221 224 226 228 231 234 235 235 235 235 234 234
221 220 220 221 220 217 215 211 210 210 211 210 210 212 214 214 215 215 216 218 220 222 224 227 229 232 233 233 233 234 234 236 237
227 229 229 226 222 216 212 210 209 211 212 211 211 212 214 214 214 216 217 218 220 222 225 228 230 231 231 232 232 234 235 237 240
231 233 233 228 220 214 208 207 208 209 210 210 210 213 213 214 214 215 217 218 220 221 225 227 229 229 231 232 234 234 235 236 238
240 242 239 225 215 209 207 206 207 207 208 207 209 210 210 211 211 213 215 217 219 221 224 226 228 230 231 232 233 232 232 235 239
245 239 231 215 205 202 204 206 205 204 205 207 207 207 207 209 210 211 213 215 218 220 223 225 227 229 230 232 231 231 234 238 243
230 223 218 206 196 196 198 201 202 203 203 205 205 206 206 207 207 209 211 213 216 218 220 223 225 227 228 229 232 235 239 241 245
214 203 193 189 188 194 198 201 202 202 203 204 204 206 207 208 209 211 213 216 219 220 222 225 227 229 232 234 237 239 241 243 247
190 183 182 185 190 197 200 202 202 204 205 207 206 208 209 209 209 211 213 216 219 221 224 227 230 233 236 238 240 242 244 246 248
184 181 183 187 192 199 203 201 202 204 206 208 209 209 210 211 214 216 218 221 224 226 227 229 233 236 239 241 243 245 248 250 251
187 179 179 179 186 191 194 197 199 201 208 209 209 211 213 218 223 223 224 225 226 228 230 233 236 237 240 242 246 249 251 253 255
194 190 184 185 182 179 185 193 197 201 206 209 213 216 220 222 227 226 225 227 228 233 234 236 237 239 242 246 249 253 255 256 259
203 199 196 192 191 190 189 191 196 202 205 208 213 217 222 226 229 228 227 230 235 238 239 240 242 243 246 248 252 257 258 260 260
210 209 205 203 202 203 202 202 204 206 209 212 216 220 225 228 232 234 234 235 238 241 243 245 244 248 249 251 255 259 260 259 261
220 218 216 214 212 212 211 212 213 217 219 224 228 231 235 236 237 238 239 239 241 242 246 246 248 249 250 253 255 258 259 259 261